This is the latest recevied weather packets stored in our database for station/object KC3ELT-10. If no packets are shown the sender has not sent any weather packets the latest 1 day(s).
| Time | Temp. | Humidity | Pressure | Rain* | Wind** | Luminosity | Snow |
|---|---|---|---|---|---|---|---|
| 1778059079 | 16.67° C | 76% | 1001.5 hPa | 0 mm | 5.36 m/s, 243° | - | - |
| 1778058779 | 17.22° C | 76% | 1001.9 hPa | 0 mm | 4.02 m/s, 150° | - | - |
| 1778058479 | 16.67° C | 76% | 1001.9 hPa | 0 mm | 4.02 m/s, 232° | - | - |
| 1778058179 | 17.22° C | 75% | 1001.9 hPa | 0 mm | 1.34 m/s, 193° | - | - |
| 1778057879 | 17.22° C | 75% | 1002 hPa | 0 mm | 3.13 m/s, 177° | - | - |
| 1778057579 | 17.22° C | 75% | 1002 hPa | 0 mm | 1.34 m/s, 196° | - | - |
| 1778057279 | 16.67° C | 75% | 1002 hPa | 0 mm | 1.79 m/s, 181° | - | - |
| 1778056979 | 17.22° C | 75% | 1002 hPa | 0 mm | 1.34 m/s, 201° | - | - |
| 1778056679 | 17.22° C | 75% | 1002 hPa | 0 mm | 1.34 m/s, 125° | - | - |
| 1778056379 | 17.22° C | 74% | 1002 hPa | 0 mm | 2.68 m/s, 110° | - | - |
| 1778056079 | 17.22° C | 74% | 1002 hPa | 0 mm | 3.13 m/s, 143° | - | - |
| 1778055779 | 17.22° C | 74% | 1002 hPa | 0 mm | 1.79 m/s, 132° | - | - |
| 1778055479 | 17.22° C | 74% | 1002 hPa | 0 mm | 2.68 m/s, 195° | - | - |
| 1778055179 | 17.22° C | 74% | 1002 hPa | 0 mm | 3.13 m/s, 187° | - | - |
| 1778054879 | 17.22° C | 74% | 1002 hPa | 0 mm | 2.68 m/s, 148° | - | - |
| 1778054579 | 17.22° C | 73% | 1002 hPa | 0 mm | 1.34 m/s, 167° | - | - |
| 1778054279 | 17.22° C | 73% | 1002 hPa | 0 mm | 2.68 m/s, 208° | - | - |
| 1778053979 | 17.22° C | 73% | 1002 hPa | 0 mm | 4.92 m/s, 231° | - | - |
| 1778053679 | 17.22° C | 73% | 1002 hPa | 0 mm | 4.47 m/s, 131° | - | - |
| 1778053379 | 17.22° C | 73% | 1002.2 hPa | 0 mm | 1.79 m/s, 180° | - | - |
| 1778053079 | 17.22° C | 72% | 1002.2 hPa | 0 mm | 1.34 m/s, 188° | - | - |
| 1778052779 | 17.22° C | 72% | 1002.2 hPa | 0 mm | 1.79 m/s, 193° | - | - |
| 1778052479 | 17.22° C | 72% | 1002.4 hPa | 0 mm | 2.24 m/s, 165° | - | - |
| 1778052179 | 17.22° C | 71% | 1002.4 hPa | 0 mm | 1.79 m/s, 161° | - | - |
| 1778051879 | 17.22° C | 71% | 1002.4 hPa | 0 mm | 2.68 m/s, 149° | - | - |
* Rain latest hour (hover to see other rain measurements)
** Current wind speed in m/s (hover to see current wind gust speed)